Location: The Jewett Observatory
(46.7288°N, 117.1525°W)
Time: 13:43:38
(UTC-07:00)

Cosmos 1633 - Visible Passes

Search period start: 18 April 2014 00:00
Search period end: 28 April 2014 00:00
Orbit: 501 x 523 km, 82.5° (Epoch: 17 April)

Date Brightness Start Highest point End Pass type
(mag) Time Alt. Az. Time Alt. Az. Time Alt. Az.
18 Apr 5.7 01:14:21 10° NNW 01:14:47 12° NW 01:14:47 12° NW visible
18 Apr 5.3 23:22:45 10° NNE 23:23:46 15° NNE 23:23:46 15° NNE visible
19 Apr 5.5 00:57:55 10° NNW 00:58:42 15° NNW 00:58:42 15° NNW visible
19 Apr 5.3 23:06:46 10° NNE 23:07:41 13° NE 23:07:41 13° NE visible
20 Apr 5.4 00:41:31 10° NNW 00:42:37 18° NNW 00:42:37 18° NNW visible
20 Apr 5.4 22:50:52 10° NE 22:51:35 12° NE 22:51:35 12° NE visible
21 Apr 5.2 00:25:07 10° NNW 00:26:30 21° NNW 00:26:30 21° NNW visible
21 Apr 5.4 22:35:13 10° NE 22:35:28 11° NE 22:35:28 11° NE visible
22 Apr 5.0 00:08:44 10° NNW 00:10:24 24° NNW 00:10:24 24° NNW visible
22 Apr 4.7 23:52:22 10° N 23:54:16 28° NNW 23:54:16 28° NNW visible
23 Apr 4.5 23:36:00 10° N 23:38:08 31° N 23:38:08 31° N visible
24 Apr 4.2 23:19:39 10° N 23:21:59 34° NNE 23:21:59 34° NNE visible
25 Apr 4.0 23:03:18 10° N 23:05:50 34° NNE 23:05:50 34° NNE visible
26 Apr 5.6 00:40:17 10° NW 00:40:45 11° WNW 00:40:45 11° WNW visible
26 Apr 4.0 22:46:58 10° N 22:49:40 33° NE 22:49:40 33° NE visible
27 Apr 5.4 00:23:24 10° NW 00:24:35 14° WNW 00:24:35 14° WNW visible
27 Apr 4.0 22:30:38 10° N 22:33:29 29° NE 22:33:29 29° NE visible
